Lawrence, KS

10:31 PM CDT on May 24, 2018 (GMT -0500)
Lawrence Municipal

Weather History for KLWC - January, 2014

Change the Weather History Date:

Friday, January 10, 2014

  Actual Average Record
Temperature  
Mean Temperature 38 °F 29 °F  
Max Temperature 43 °F 39 °F 56 °F (2012)
Min Temperature 32 °F 18 °F 0 °F (1997)
Degree Days  
Heating Degree Days 27 36  
Month to date heating degree days 455 360  
Since 1 July heating degree days 2606 2403  
Cooling Degree Days 0 0  
Month to date cooling degree days 0 0  
Year to date cooling degree days 0 0  
Moisture  
Dew Point 35 °F    
Average Humidity 93    
Maximum Humidity 100    
Minimum Humidity 85    
Precipitation  
Precipitation 0.01 in 0.02 in 0.53 in (2013)
Month to date precipitation 0.07 0.27  
Year to date precipitation 0.07 0.27  
Sea Level Pressure  
Sea Level Pressure 29.72 in    
Wind  
Wind Speed 7 mph (SSE)    
Max Wind Speed 16 mph    
Max Gust Speed 19 mph    
Visibility 4 miles    
Events Fog , Rain    
T = Trace of Precipitation, MM = Missing Value Source: NWS Daily Summary

Daily Weather History Graph

Daily Weather History Graph

Search for Another Location

Airport or City:

Astronomy

Jan. 10, 2014 Rise Set
Actual Time 7:39 AM CST 5:17 PM CST
Civil Twilight 7:10 AM CST 5:47 PM CST
Nautical Twilight 6:37 AM CST 6:20 PM CST
Astronomical Twilight 6:04 AM CST 6:52 PM CST
Moon 1:21 PM CST (1/10) 2:48 AM CST (1/10)
Length of Visible Light 10h 37m
Length of Day
9h 38m
Waxing Gibbous, 75% of the Moon is Illuminated
Jan 10
Waxing Gibbous
Jan 15
Full
Jan 23
Last Quarter
Jan 30
New
Feb 6
First Quarter

Hourly Weather History & Observations

Time (CST) Temp. Windchill Dew Point Humidity Pressure Visibility Wind Dir Wind Speed Gust Speed Precip Events Conditions
12:07 AM 32.0 °F 24.8 °F 30.0 °F 92% 29.99 in 0.5 mi SE 8.1 mph - N/A Fog Fog
12:17 AM 32.0 °F 25.6 °F 30.0 °F 92% 29.99 in 0.8 mi SE 6.9 mph - N/A   Mist
12:27 AM 32.0 °F 25.6 °F 30.9 °F 96% 29.99 in 1.0 mi SE 6.9 mph - N/A   Overcast
12:52 AM 33.1 °F 26.9 °F 30.9 °F 92% 29.99 in 1.2 mi ESE 6.9 mph - N/A   Overcast
1:52 AM 33.1 °F 26.9 °F 32.0 °F 96% 29.96 in 1.5 mi ESE 6.9 mph - N/A   Overcast
2:45 AM 34.0 °F 27.2 °F 32.0 °F 92% 29.91 in 2.0 mi SE 8.1 mph - N/A   Overcast
2:52 AM 34.0 °F 27.2 °F 32.0 °F 92% 29.93 in 2.0 mi SE 8.1 mph - N/A   Overcast
3:52 AM 34.0 °F 27.2 °F 32.0 °F 92% 29.89 in 2.5 mi SE 8.1 mph - N/A   Overcast
4:04 AM 34.0 °F 27.2 °F 33.1 °F 96% 29.86 in 3.0 mi SE 8.1 mph - N/A   Overcast
4:14 AM 34.0 °F 27.2 °F 33.1 °F 96% 29.85 in 2.5 mi SE 8.1 mph - N/A   Overcast
4:52 AM 35.1 °F 29.3 °F 33.1 °F 92% 29.86 in 2.0 mi ESE 6.9 mph - N/A   Overcast
5:09 AM 35.1 °F 28.6 °F 33.1 °F 92% 29.82 in 1.8 mi SE 8.1 mph - N/A   Overcast
5:24 AM 35.1 °F 29.3 °F 33.1 °F 92% 29.82 in 2.0 mi SE 6.9 mph - N/A   Overcast
5:41 AM 35.1 °F 28.6 °F 33.1 °F 92% 29.81 in 1.5 mi ESE 8.1 mph - N/A   Overcast
5:52 AM 35.1 °F 28.6 °F 33.1 °F 92% 29.82 in 1.0 mi ESE 8.1 mph - N/A   Overcast
6:52 AM 35.1 °F 28.6 °F 33.1 °F 92% 29.78 in 1.0 mi SE 8.1 mph - N/A   Overcast
7:11 AM 35.1 °F 27.9 °F 33.1 °F 92% 29.75 in 0.8 mi ESE 9.2 mph - N/A   Overcast
7:30 AM 35.1 °F 28.6 °F 33.1 °F 92% 29.74 in 1.0 mi SE 8.1 mph - N/A   Overcast
7:52 AM 35.1 °F 29.3 °F 34.0 °F 96% 29.75 in 1.0 mi ESE 6.9 mph - N/A   Overcast
8:32 AM 35.1 °F 29.3 °F 34.0 °F 96% 29.72 in 0.8 mi SE 6.9 mph - N/A   Overcast
8:52 AM 36.0 °F 29.6 °F 34.0 °F 93% 29.73 in 0.8 mi ESE 8.1 mph - N/A   Overcast
9:30 AM 37.0 °F 32.4 °F 35.1 °F 93% 29.70 in 1.0 mi East 5.8 mph - N/A   Overcast
9:52 AM 37.0 °F 33.3 °F 36.0 °F 96% 29.71 in 1.0 mi East 4.6 mph - N/A   Overcast
10:11 AM 37.0 °F 33.3 °F 36.0 °F 96% 29.69 in 0.8 mi East 4.6 mph - N/A   Overcast
10:52 AM 37.9 °F 32.1 °F 36.0 °F 93% 29.71 in 1.0 mi SE 8.1 mph - N/A   Overcast
11:26 AM 37.9 °F 32.1 °F 36.0 °F 93% 29.66 in 2.0 mi SE 8.1 mph - N/A   Overcast
11:52 AM 39.0 °F 34.0 °F 37.0 °F 93% 29.65 in 1.8 mi SE 6.9 mph - N/A   Overcast
11:59 AM 39.0 °F 34.8 °F 37.0 °F 93% 29.62 in 2.0 mi SE 5.8 mph - N/A   Overcast
12:25 PM 39.9 °F 37.8 °F 37.9 °F 93% 29.59 in 3.0 mi SE 3.5 mph - N/A   Overcast
12:47 PM 39.2 °F 37.0 °F 39.2 °F 100% 29.57 in 5.0 mi SE 3.5 mph - N/A   Overcast
12:52 PM 39.9 °F 37.8 °F 39.0 °F 97% 29.59 in 5.0 mi SSE 3.5 mph - N/A   Overcast
1:52 PM 42.1 °F 39.2 °F 39.9 °F 92% 29.56 in 8.0 mi SW 4.6 mph - N/A   Overcast
2:52 PM 42.1 °F 38.4 °F 39.9 °F 92% 29.56 in 4.0 mi WSW 5.8 mph - N/A   Overcast
3:31 PM 42.1 °F 38.4 °F 39.0 °F 89% 29.54 in 9.0 mi SW 5.8 mph - N/A   Overcast
3:52 PM 42.1 °F 39.2 °F 39.0 °F 89% 29.55 in 10.0 mi SW 4.6 mph - N/A   Overcast
4:52 PM 41.0 °F 38.0 °F 37.9 °F 89% 29.57 in 9.0 mi West 4.6 mph - N/A   Overcast
5:52 PM 39.9 °F 35.1 °F 37.0 °F 89% 29.59 in 9.0 mi West 6.9 mph - N/A   Overcast
6:28 PM 37.9 °F 31.5 °F 36.0 °F 93% 29.59 in 4.0 mi WNW 9.2 mph - N/A   Overcast
6:36 PM 37.9 °F 31.5 °F 36.0 °F 93% 29.59 in 5.0 mi WNW 9.2 mph - N/A   Overcast
6:52 PM 37.9 °F 30.9 °F 35.1 °F 89% 29.61 in 6.0 mi WNW 10.4 mph - N/A   Overcast
7:52 PM 37.0 °F 29.8 °F 35.1 °F 93% 29.63 in 7.0 mi WNW 10.4 mph - N/A   Overcast
8:52 PM 37.0 °F 31.0 °F 34.0 °F 89% 29.64 in 9.0 mi WNW 8.1 mph - N/A   Overcast
9:02 PM 37.0 °F 30.4 °F 34.0 °F 89% 29.63 in 9.0 mi WNW 9.2 mph - N/A   Overcast
9:27 PM 36.0 °F 30.3 °F 34.0 °F 93% 29.63 in 9.0 mi West 6.9 mph - N/A   Overcast
9:37 PM 36.0 °F 29.6 °F 33.1 °F 89% 29.64 in 9.0 mi West 8.1 mph - N/A   Overcast
9:52 PM 36.0 °F 31.1 °F 33.1 °F 89% 29.65 in 9.0 mi West 5.8 mph - N/A   Overcast
10:52 PM 36.0 °F 32.1 °F 34.0 °F 93% 29.66 in 7.0 mi West 4.6 mph - N/A   Overcast
11:30 PM 36.0 °F 29.6 °F 33.1 °F 89% 29.65 in 6.0 mi West 8.1 mph - 0.01 in Rain Light Rain
11:52 PM 36.0 °F 29.6 °F 33.1 °F 89% 29.67 in 7.0 mi WNW 8.1 mph - 0.01 in   Overcast